TDRS 5                  
1 21639U 91054B   19258.66918046  .00000084  00000-0  00000-0 0  9997
2 21639  14.4109  13.1907 0020370   5.8983  48.7854  1.00265244102988
IUS R/B(1)              
1 21640U 91054C   19259.22534999  .00001368  00000-0  21497-3 0  9995
2 21640  26.3553 224.8659 6815242 255.3569  25.4567  2.89601490266460
IUS R/B(2)              
1 21641U 91054D   19253.82563757 -.00000201  00000-0  00000-0 0  9990
2 21641  16.1356 355.4214 0037406 290.5186  81.7542  1.00396793 22596